This is the latest recevied weather packets stored in our database for station/object WC4PEM. If no packets are shown the sender has not sent any weather packets the latest 10 day(s).
| Time | Temp. | Humidity | Pressure | Rain* | Wind** | Luminosity | Snow |
|---|---|---|---|---|---|---|---|
| 1778118864 | 27.22° C | 68% | 1015.2 hPa | 0 mm | - | - | - |
| 1778118564 | 27.78° C | 68% | 1015.1 hPa | 0 mm | - | - | - |
| 1778118264 | 27.78° C | 68% | 1015.2 hPa | 0 mm | - | - | - |
| 1778117964 | 27.78° C | 68% | 1015.2 hPa | 0 mm | - | - | - |
| 1778117664 | 27.78° C | 68% | 1015.2 hPa | 0 mm | - | - | - |
| 1778117364 | 27.78° C | 69% | 1015.1 hPa | 0 mm | - | - | - |
| 1778117064 | 27.78° C | 69% | 1015 hPa | 0 mm | - | - | - |
| 1778116764 | 27.78° C | 70% | 1014.9 hPa | 0 mm | - | - | - |
| 1778116464 | 28.33° C | 70% | 1014.9 hPa | 0 mm | - | - | - |
| 1778116164 | 28.33° C | 70% | 1014.8 hPa | 0 mm | - | - | - |
| 1778115864 | 28.33° C | 69% | 1014.8 hPa | 0 mm | - | - | - |
| 1778115564 | 28.33° C | 69% | 1014.5 hPa | 0 mm | - | - | - |
| 1778115264 | 28.89° C | 68% | 1014.4 hPa | 0 mm | - | - | - |
| 1778114964 | 28.89° C | 68% | 1014.3 hPa | 0 mm | - | - | - |
| 1778114664 | 29.44° C | 67% | 1014.2 hPa | 0 mm | - | - | - |
| 1778114364 | 29.44° C | 66% | 1014.3 hPa | 0 mm | - | - | - |
| 1778114064 | 30° C | 64% | 1014.1 hPa | 0 mm | - | - | - |
| 1778113764 | 30.56° C | 62% | 1014.1 hPa | 0 mm | - | - | - |
| 1778113464 | 31.11° C | 60% | 1014.1 hPa | 0 mm | - | - | - |
| 1778113164 | 31.67° C | 52% | 1014.1 hPa | 0 mm | - | - | - |
| 1778112864 | 31.67° C | 45% | 1014 hPa | 0 mm | - | - | - |
| 1778112564 | 32.22° C | 44% | 1013.9 hPa | 0 mm | - | - | - |
| 1778112264 | 32.22° C | 43% | 1013.8 hPa | 0 mm | - | - | - |
| 1778111964 | 32.22° C | 43% | 1013.8 hPa | 0 mm | - | - | - |
| 1778111664 | 32.22° C | 43% | 1013.7 hPa | 0 mm | - | - | - |
* Rain latest hour (hover to see other rain measurements)
** Current wind speed in m/s (hover to see current wind gust speed)